User: anonymous   Login
Location: Unspecified
(0.0000°N, 0.0000°E)
Time: 23:32:13
(UTC+00:00)
Language:

Delta IV Demo - Orbit

View from above orbital plane
View from above orbital plane
View from above satellite
View from above satellite

Ground track
Ground track

The orbit data is extracted from the following two-line orbital elements,

1 28500U 04050A   17315.58875152 0.00000000  00000-0  00000-0 0    05
2 28500  16.0502  36.6642 2776085 180.7540 178.7236  1.41305908    03
Epoch (UTC): 11 November 2017 14:07:48
Eccentricity: 0.2776085
inclination: 16.0502°
perigee height: 17854 km
apogee height: 36479 km
right ascension of ascending node: 36.6642°
argument of perigee: 180.7540°
revolutions per day: 1.41305908
mean anomaly at epoch: 178.7236°
orbit number at epoch: 0

The dashed part of the orbit path shows where the satellite is in the earth's shadow,  

DLR